Regional Weather Roundup
Issued by NWS Upton, NY

Current Version | Previous Version | Graphics & Text | Print | Product List | Glossary Off
Versions: 1 2 3 4 5 6 7 8 9 10 11 12 13 14 15 16 17 18 19 20 21 22 23 24 25 26 27 28 29 30 31 32 33 34 35 36 37 38 39 40 41 42 43 44 45 46 47 48 49 50

000
ASUS41 KOKX 222005
RWROKX

REGIONAL WEATHER ROUNDUP
NATIONAL WEATHER SERVICE NEW YORK NY
400 PM EDT MON SEP 22 2014

NOTE: "FAIR" INDICATES FEW OR NO CLOUDS BELOW 12,000 FEET WITH NO
SIGNIFICANT WEATHER AND/OR OBSTRUCTIONS TO VISIBILITY.

NYZ071-072-176-178-NJZ106-104-222100-
NEW YORK CITY METRO AREA


CITY           SKY/WX    TMP DP  RH WIND       PRES   REMARKS
CENTRAL PARK   MOSUNNY   69  43  38 W10G23    29.95S
LAGUARDIA APRT PTSUNNY   70  44  39 W15       29.92R
KENNEDY INTL   MOSUNNY   72  46  39 W18       29.93R
NEWARK/LIBERTY MOSUNNY   70  46  42 W20G29    29.94R
BRNX BOT. GARD   N/A     68  45  42 W7        29.94S
TETERBORO      SUNNY     71  44  37 W16G23    29.93R
$$

NYZ177-179-078>081-222100-
LONG ISLAND NEW YORK

CITY           SKY/WX    TMP DP  RH WIND       PRES   REMARKS
FARMINGDALE    MOSUNNY   71  48  43 NW10G21   29.91R
ISLIP          MOSUNNY   71  48  43 W13       29.89R
SHIRLEY        SUNNY     71  49  45 W13G23    29.90R
WESTHAMPTON    MOSUNNY   73  47  39 W14G24    29.90R
MONTAUK POINT    N/A     72  53  51 W8        29.88R
$$

NYZ052-065-067-222100-
HUDSON VALLEY

CITY           SKY/WX    TMP DP  RH WIND       PRES   REMARKS
WHITE PLAINS   MOSUNNY   66  43  43 NW17G26   29.93R
NEWBURGH       MOSUNNY   63  45  51 W23G32    29.96R
MONTGOMERY     SUNNY     63  42  46 NW18G26   29.96R
POUGHKEEPSIE   SUNNY     66  42  41 W15G23    29.93R
ALBANY         PTSUNNY   57  39  51 NW24G33   29.99R
$$

NJZ001-105-106-008-010-013-015-019>022-104-222100-
NEW JERSEY

CITY           SKY/WX    TMP DP  RH WIND       PRES   REMARKS
NEWARK/LIBERTY MOSUNNY   70  46  42 W20G29    29.94R
TETERBORO      SUNNY     71  44  37 W16G23    29.93R
CALDWELL       SUNNY     67  43  41 NW16G25   29.96R
MORRISTOWN     MOSUNNY   66  45  45 NW14G22   29.96R
SOMERVILLE     SUNNY     69  45  41 NW12G20   29.94S
LINDEN         FAIR      73  48  40 NW17G23   29.96S
SUSSEX         SUNNY     65  43  44 W13G23    29.98R
ANDOVER          N/A     62  44  51 N9G18     29.99R
TRENTON        CLOUDY    70  45  40 NW10G21   29.96S
MILLVILLE      SUNNY     70  48  45 NW12      29.98R
ATLANTIC CITY  CLOUDY    70  49  47 NW15      29.96R
WRIGHTSTOWN    CLOUDY    69  49  49 W13       29.94R
TOMS RIVER     CLOUDY    70  48  46 NW8G17    29.96R
BELMAR         CLOUDY    68  48  49 NW13G23   29.95R
$$

PAZ047>061-062-071-222100-
EASTERN PENNSYLVANIA

CITY           SKY/WX    TMP DP  RH WIND       PRES   REMARKS
PHILADELPHIA   PTSUNNY   69  47  45 NW15      29.99R
ALLENTOWN      SUNNY     66  42  41 W17G25    30.00R
SCRANTON       PTSUNNY   58  41  53 NW14G22   30.03R
$$

CTZ002-004>006-009-010-012-RIZ004-006-007-MAZ004-011-015-222100-
SOUTHERN NEW ENGLAND
 IN CT

CITY           SKY/WX    TMP DP  RH WIND       PRES   REMARKS
BRADLEY INTL   MOSUNNY   68  44  42 NW18G25   29.88R
HARTFORD       MOSUNNY   69  45  41 NW9       29.87S
DANBURY        SUNNY     65  44  46 W16G24    29.93R
WTRBRY/OXFORD  MOSUNNY   66  46  48 NW8G16    29.91R
BRIDGEPORT     MOSUNNY   71  48  43 NW14      29.88R
MERIDEN        MOSUNNY   70  43  37 W10G21    29.88R
NEW HAVEN      MOSUNNY   72  47  40 NW10      29.88R
CHESTER        FAIR      70  48  46 NW7       29.88R
GROTON         MOSUNNY   71  49  45 NW13G20   29.85R
WILLIMANTIC    MOSUNNY   68  44  42 NW13G22   29.87R

 IN RI

CITY           SKY/WX    TMP DP  RH WIND       PRES   REMARKS
PROVIDENCE     MOSUNNY   70  43  37 NW22G29   29.84R
BLOCK ISLAND   CLOUDY    72  50  46 NW7       29.86R
WESTERLY       SUNNY     72  47  40 W8G18     29.85R

 IN MA

CITY           SKY/WX    TMP DP  RH WIND       PRES   REMARKS
BOSTON         MOSUNNY   70  43  37 W20G28    29.80R
WORCESTER      PTSUNNY   62  43  49 W14G21    29.86R
WESTFIELD      MOSUNNY   67  43  41 NW17G24   29.89R
PROVINCETOWN   SUNNY     70  54  56 NW13G18   29.80R
NANTUCKET      SUNNY     70  58  65 SW22      29.83R
$$

ANZ330-335-338-340-345-350-353-355-222100-
COASTAL MARINE OBSERVATIONS


STATION/POSITION TIME  SKY/WX   TEMP    WIND        PRES    VSBY  WAVE
                                AIR SEA DIR/SP/G                  HT/PER
                 (UTC)          (F)     (DEG/KT/KT) (MB)    (MI)  (FT/S)
NY HARB ENTRANCE 2000            68 70  300/ 17/ 21 1013.4          4/10
4S FIRE IS       2000               70                N/A           6/11
20S FIRE ISLAND  2000            67 68  290/ 17/ 21 1012.8          6/10
23SW MTP         2000                                 N/A           8/11
HUDSON CANYON    2000            69 71  280/ 14/ 16 1013.3          8/10
EXECUTION ROCKS  2000            68 70  320/ 17/ 21   N/A
WESTERN LI SOUND 2000            67     310/ 17/ 21   N/A           1/ 2
CENTRAL LI SOUND 1900            69 70  280/ 16/ 19   N/A           2/ 4
EASTERN LI SOUND 1900            70 67  300/ 14/ 19   N/A
ROBBINS REEF     2000            66     280/ 19/ 23 1012.3
$$


>>>>>>>>>>>>>>>>>>>>>>>>>>>> KEY <<<<<<<<<<<<<<<<<<<<<<<<<<<
>                                                          <
>     SKY/WX - SKY CONDITION/PRESENT WEATHER               <
>     TMP    - TEMPERATURE IN FAHRENHEIT                   <
>     DP     - DEWPOINT IN FAHRENHEIT                      <
>     RH     - RELATIVE HUMIDITY IN PERCENT                <
>     WIND   - DIRECTION AND SPEED IN MPH                  <
>     PRES   - MEAN SEA LEVEL PRESSURE IN INCHES OF HG     <
>     WCI    - WIND CHILL INDEX                            <
>     VSB    - VISIBILITY IN MILES                         <
>     HX     - HEAT INDEX                                  <
>     TC     - TEMPERATURE IN CELSIUS                      <
>     VRB    - VARIABLE WIND DIRECTION                     <
>                                                          <
>>>>>>>>>>>>>>>>>>>>>>>>>>>> KEY <<<<<<<<<<<<<<<<<<<<<<<<<<<





USA.gov is the U.S. government's official web portal to all federal, state and local government web resources and services.